Location: Newark
(36.1358°N, 115.1208°W)
Time: 14:31:33
(UTC+00:00)

Vanguard 1 Rocket - Pass Details

Date: 23 February 2020
Orbit: 650 x 4226 km, 34.3° (Epoch: 08 April)

Event Time Altitude Azimuth Distance (km) Brightness Sun altitude
Rises 13:47:28 0° 276° (W) 3,265 - -7.1°
Exits shadow 13:49:37 - 271° (W) 2,364 8.9 -6.7°
Reaches altitude 10° 13:50:08 10° 270° (W) 2,157 8.7 -6.6°
Maximum altitude 13:54:29 44° 197° (SSW) 894 7.3 -5.7°
Drops below altitude 10° 13:58:52 10° 125° (SE) 2,170 10.6 -4.8°
Sets 14:01:33 0° 119° (ESE) 3,287 11.9 -4.3°
